LVS137 SADF-CHY

Flight info

Callsign LVS137
Flight time N/A
Altitude 1500
Route DCT CHY
Aircraft ECHO/L-SFG/C

Departure

Time 2026-04-18 17:40
Airport San Fernando Airport (SADF)

Arrival

Time N/A
Airport CHY
Time Latitude Longitude Altitude Speed Heading
2026-04-18 17:27 -34.45809 -58.59027 21 ft 0 kts 333°
2026-04-18 17:34 -34.45797 -58.59034 21 ft 4 kts 336°
2026-04-18 17:34 -34.45791 -58.59038 21 ft 2 kts 309°
2026-04-18 17:34 -34.45795 -58.59059 21 ft 7 kts 242°
2026-04-18 17:34 -34.45845 -58.59173 21 ft 21 kts 242°
2026-04-18 17:35 -34.45925 -58.59358 21 ft 24 kts 243°
2026-04-18 17:35 -34.46001 -58.59538 21 ft 23 kts 243°
2026-04-18 17:35 -34.46027 -58.59597 21 ft 0 kts 253°
2026-04-18 17:37 -34.46029 -58.59646 21 ft 4 kts 294°
2026-04-18 17:37 -34.45998 -58.59683 21 ft 10 kts 317°
2026-04-18 17:37 -34.45974 -58.59702 21 ft 1 kts 25°
2026-04-18 17:38 -34.45953 -58.59674 21 ft 0 kts 38°
2026-04-18 17:38 -34.45885 -58.59596 21 ft 33 kts 44°
2026-04-18 17:38 -34.45615 -58.59259 39 ft 72 kts 38°
2026-04-18 17:39 -34.45229 -58.58820 149 ft 79 kts 27°
2026-04-18 17:39 -34.44730 -58.58390 177 ft 94 kts 33°
2026-04-18 17:39 -34.44300 -58.57808 329 ft 91 kts 43°
2026-04-18 17:39 -34.43907 -58.57260 496 ft 83 kts 43°
2026-04-18 17:40 -34.43525 -58.56749 670 ft 83 kts 42°
2026-04-18 17:40 -34.43038 -58.56411 820 ft 84 kts 358°
2026-04-18 17:40 -34.42579 -58.56828 976 ft 84 kts 311°
2026-04-18 17:40 -34.42086 -58.57338 1074 ft 100 kts 319°
2026-04-18 17:41 -34.41561 -58.57888 1339 ft 97 kts 321°
2026-04-18 17:41 -34.41089 -58.58490 1486 ft 107 kts 302°
2026-04-18 17:41 -34.40947 -58.59392 1511 ft 116 kts 253°
2026-04-18 17:41 -34.41299 -58.60280 1516 ft 119 kts 236°
2026-04-18 17:42 -34.41652 -58.61169 1503 ft 111 kts 240°
2026-04-18 17:42 -34.41971 -58.61988 1497 ft 106 kts 239°
2026-04-18 17:42 -34.42283 -58.62774 1496 ft 103 kts 240°
2026-04-18 17:42 -34.42588 -58.63558 1493 ft 100 kts 240°
2026-04-18 17:43 -34.42881 -58.64303 1494 ft 98 kts 238°
2026-04-18 17:43 -34.43178 -58.65053 1499 ft 101 kts 238°
2026-04-18 17:43 -34.43489 -58.65837 1494 ft 105 kts 241°
2026-04-18 17:43 -34.43798 -58.66629 1498 ft 105 kts 240°
2026-04-18 17:44 -34.44112 -58.67432 1507 ft 107 kts 240°
2026-04-18 17:44 -34.44428 -58.68242 1501 ft 104 kts 239°
2026-04-18 17:44 -34.44732 -58.69021 1491 ft 100 kts 239°
2026-04-18 17:44 -34.45037 -58.69801 1499 ft 106 kts 240°
2026-04-18 17:45 -34.45357 -58.70617 1504 ft 108 kts 238°
2026-04-18 17:45 -34.45680 -58.71424 1503 ft 107 kts 240°
2026-04-18 17:45 -34.46002 -58.72253 1503 ft 107 kts 240°
2026-04-18 17:45 -34.46317 -58.73061 1508 ft 107 kts 240°
2026-04-18 17:46 -34.46641 -58.73894 1508 ft 111 kts 237°
2026-04-18 17:46 -34.46976 -58.74739 1507 ft 110 kts 240°
2026-04-18 17:46 -34.47307 -58.75602 1500 ft 114 kts 239°
2026-04-18 17:46 -34.47636 -58.76450 1495 ft 110 kts 241°
2026-04-18 17:47 -34.47955 -58.77271 1497 ft 106 kts 239°
2026-04-18 17:47 -34.48284 -58.78100 1498 ft 113 kts 240°
2026-04-18 17:47 -34.48613 -58.78945 1495 ft 108 kts 237°
2026-04-18 17:47 -34.48939 -58.79761 1483 ft 106 kts 239°
2026-04-18 17:48 -34.49239 -58.80545 1498 ft 101 kts 238°
2026-04-18 17:48 -34.49562 -58.81363 1495 ft 113 kts 239°
2026-04-18 17:48 -34.49903 -58.82235 1503 ft 114 kts 238°
2026-04-18 17:48 -34.50240 -58.83078 1484 ft 107 kts 239°
2026-04-18 17:49 -34.50537 -58.83862 1483 ft 101 kts 238°
2026-04-18 17:49 -34.50828 -58.84619 1496 ft 101 kts 239°
2026-04-18 17:49 -34.51144 -58.85435 1486 ft 109 kts 238°
2026-04-18 17:49 -34.51458 -58.86243 1478 ft 105 kts 238°
2026-04-18 17:50 -34.51765 -58.87023 1467 ft 99 kts 239°
2026-04-18 17:50 -34.52057 -58.87781 1464 ft 98 kts 240°
2026-04-18 17:50 -34.52354 -58.88538 1474 ft 101 kts 236°
2026-04-18 17:50 -34.52664 -58.89318 1484 ft 108 kts 238°
2026-04-18 17:51 -34.52988 -58.90153 1480 ft 107 kts 239°
2026-04-18 17:51 -34.53294 -58.90946 1486 ft 101 kts 239°
2026-04-18 17:51 -34.53603 -58.91738 1486 ft 106 kts 239°
2026-04-18 17:51 -34.53921 -58.92549 1470 ft 105 kts 238°
2026-04-18 17:52 -34.54223 -58.93338 1473 ft 100 kts 238°
2026-04-18 17:52 -34.54529 -58.94117 1485 ft 105 kts 238°
2026-04-18 17:52 -34.54845 -58.94918 1485 ft 105 kts 236°
2026-04-18 17:52 -34.55165 -58.95698 1490 ft 104 kts 239°
2026-04-18 17:53 -34.55465 -58.96514 1486 ft 107 kts 238°
2026-04-18 17:53 -34.55776 -58.97332 1473 ft 106 kts 237°
2026-04-18 17:53 -34.56080 -58.98122 1469 ft 101 kts 237°
2026-04-18 17:53 -34.56376 -58.98877 1485 ft 102 kts 239°
2026-04-18 17:54 -34.56693 -58.99684 1481 ft 109 kts 239°
2026-04-18 17:54 -34.57006 -59.00506 1492 ft 106 kts 240°
2026-04-18 17:54 -34.57302 -59.01323 1467 ft 104 kts 239°
2026-04-18 17:54 -34.57622 -59.02090 1475 ft 99 kts 237°
2026-04-18 17:55 -34.57937 -59.02869 1469 ft 104 kts 239°
2026-04-18 17:55 -34.58239 -59.03655 1530 ft 103 kts 239°
2026-04-18 17:55 -34.58538 -59.04431 1536 ft 101 kts 238°
2026-04-18 17:55 -34.58836 -59.05197 1532 ft 100 kts 237°
2026-04-18 17:56 -34.59129 -59.05951 1536 ft 98 kts 237°
2026-04-18 17:56 -34.59418 -59.06694 1532 ft 97 kts 237°
2026-04-18 17:56 -34.59975 -59.08161 1541 ft 95 kts 238°
2026-04-18 17:57 -34.60267 -59.08877 1545 ft 95 kts 235°
2026-04-18 17:57 -34.60839 -59.10347 1541 ft 99 kts 237°
2026-04-18 17:58 -34.61462 -59.11994 1547 ft 108 kts 238°
2026-04-18 17:58 -34.62101 -59.13632 1537 ft 108 kts 237°
2026-04-18 17:59 -34.62710 -59.15220 1532 ft 103 kts 239°
2026-04-18 17:59 -34.63010 -59.15995 1549 ft 104 kts 237°
2026-04-18 17:59 -34.63635 -59.17636 1565 ft 109 kts 237°
2026-04-18 18:00 -34.63972 -59.18491 1546 ft 112 kts 237°
2026-04-18 18:00 -34.64635 -59.20209 1552 ft 111 kts 239°
2026-04-18 18:01 -34.65296 -59.21913 1541 ft 112 kts 239°
2026-04-18 18:01 -34.65925 -59.23548 1546 ft 106 kts 240°
2026-04-18 18:02 -34.66553 -59.25177 1544 ft 106 kts 238°
2026-04-18 18:02 -34.67195 -59.26841 1551 ft 112 kts 238°
2026-04-18 18:02 -34.67525 -59.27703 1553 ft 112 kts 239°
2026-04-18 18:03 -34.68164 -59.29367 1547 ft 105 kts 239°
2026-04-18 18:03 -34.68473 -59.30170 1555 ft 107 kts 238°
2026-04-18 18:04 -34.69109 -59.31798 1552 ft 110 kts 239°
2026-04-18 18:04 -34.69436 -59.32658 1550 ft 111 kts 239°
2026-04-18 18:04 -34.70062 -59.34291 1554 ft 106 kts 238°
2026-04-18 18:05 -34.70690 -59.35940 1555 ft 107 kts 237°
2026-04-18 18:05 -34.70998 -59.36753 1558 ft 105 kts 236°
2026-04-18 18:05 -34.71316 -59.37563 1557 ft 107 kts 237°
2026-04-18 18:06 -34.71955 -59.39234 1565 ft 109 kts 237°
2026-04-18 18:06 -34.72266 -59.40054 1560 ft 108 kts 237°
2026-04-18 18:06 -34.72586 -59.40883 1556 ft 108 kts 236°
2026-04-18 18:07 -34.72899 -59.41698 1543 ft 106 kts 237°
2026-04-18 18:07 -34.73199 -59.42473 1558 ft 100 kts 237°
2026-04-18 18:07 -34.73767 -59.43966 1548 ft 96 kts 239°
2026-04-18 18:08 -34.74058 -59.44713 1553 ft 98 kts 236°
2026-04-18 18:08 -34.74343 -59.45465 1552 ft 97 kts 237°
2026-04-18 18:08 -34.74631 -59.46203 1554 ft 95 kts 237°
2026-04-18 18:08 -34.74917 -59.46950 1562 ft 100 kts 237°
2026-04-18 18:09 -34.75213 -59.47730 1566 ft 103 kts 238°
2026-04-18 18:09 -34.75513 -59.48510 1565 ft 101 kts 238°
2026-04-18 18:09 -34.75808 -59.49285 1560 ft 100 kts 237°
2026-04-18 18:09 -34.76097 -59.50043 1554 ft 101 kts 238°
2026-04-18 18:10 -34.76390 -59.50800 1561 ft 99 kts 237°
2026-04-18 18:10 -34.76685 -59.51580 1567 ft 103 kts 239°
2026-04-18 18:10 -34.76992 -59.52379 1567 ft 104 kts 238°
2026-04-18 18:10 -34.77296 -59.53183 1563 ft 105 kts 238°
2026-04-18 18:11 -34.77601 -59.53980 1566 ft 103 kts 238°
2026-04-18 18:11 -34.77906 -59.54782 1563 ft 106 kts 238°
2026-04-18 18:11 -34.78114 -59.55323 1562 ft 107 kts 238°
2026-04-18 18:11 -34.78431 -59.56154 1562 ft 109 kts 238°
2026-04-18 18:12 -34.78745 -59.56986 1558 ft 107 kts 238°
2026-04-18 18:12 -34.79052 -59.57787 1561 ft 104 kts 237°
2026-04-18 18:12 -34.79463 -59.58862 1548 ft 106 kts 237°
2026-04-18 18:12 -34.79673 -59.59407 1555 ft 106 kts 237°
2026-04-18 18:13 -34.79987 -59.60227 1554 ft 105 kts 239°
2026-04-18 18:13 -34.80297 -59.61042 1555 ft 107 kts 238°
2026-04-18 18:13 -34.80606 -59.61853 1558 ft 105 kts 238°
2026-04-18 18:13 -34.80915 -59.62655 1560 ft 105 kts 238°
2026-04-18 18:14 -34.81226 -59.63473 1551 ft 106 kts 240°
2026-04-18 18:14 -34.81530 -59.64282 1546 ft 105 kts 240°
2026-04-18 18:14 -34.81828 -59.65073 1554 ft 105 kts 240°
2026-04-18 18:14 -34.82139 -59.65888 1550 ft 106 kts 239°
2026-04-18 18:15 -34.82446 -59.66699 1551 ft 102 kts 239°
2026-04-18 18:15 -34.82735 -59.67457 1537 ft 97 kts 239°
2026-04-18 18:15 -34.83019 -59.68181 1540 ft 95 kts 240°
2026-04-18 18:15 -34.83297 -59.68917 1544 ft 97 kts 239°
2026-04-18 18:16 -34.83591 -59.69679 1560 ft 102 kts 239°
2026-04-18 18:16 -34.83894 -59.70488 1560 ft 105 kts 239°
2026-04-18 18:16 -34.84199 -59.71294 1554 ft 104 kts 240°
2026-04-18 18:16 -34.84494 -59.72081 1559 ft 102 kts 240°
2026-04-18 18:17 -34.84798 -59.72871 1557 ft 104 kts 240°
2026-04-18 18:17 -34.85102 -59.73684 1555 ft 104 kts 239°
2026-04-18 18:17 -34.85408 -59.74492 1559 ft 106 kts 239°
2026-04-18 18:17 -34.85715 -59.75295 1550 ft 103 kts 239°
2026-04-18 18:18 -34.86012 -59.76073 1551 ft 102 kts 238°
2026-04-18 18:18 -34.86307 -59.76861 1552 ft 103 kts 238°
2026-04-18 18:18 -34.86610 -59.77651 1548 ft 102 kts 240°
2026-04-18 18:18 -34.86909 -59.78432 1547 ft 102 kts 239°
2026-04-18 18:19 -34.87214 -59.79231 1546 ft 103 kts 238°
2026-04-18 18:19 -34.87504 -59.80016 1546 ft 101 kts 237°
2026-04-18 18:19 -34.87803 -59.80800 1544 ft 102 kts 238°
2026-04-18 18:19 -34.88103 -59.81589 1541 ft 105 kts 240°
2026-04-18 18:20 -34.88406 -59.82390 1544 ft 102 kts 239°
2026-04-18 18:20 -34.88687 -59.83155 1536 ft 98 kts 238°
2026-04-18 18:20 -34.88976 -59.83902 1532 ft 98 kts 237°
2026-04-18 18:20 -34.89267 -59.84653 1531 ft 99 kts 238°
2026-04-18 18:21 -34.89554 -59.85423 1544 ft 100 kts 237°
2026-04-18 18:21 -34.89848 -59.86209 1543 ft 103 kts 237°
2026-04-18 18:21 -34.90145 -59.86987 1544 ft 99 kts 240°
2026-04-18 18:21 -34.90440 -59.87761 1540 ft 104 kts 241°
2026-04-18 18:22 -34.90718 -59.88547 1535 ft 99 kts 240°
2026-04-18 18:22 -34.91000 -59.89281 1531 ft 92 kts 238°
2026-04-18 18:22 -34.91275 -59.89992 1537 ft 94 kts 237°
2026-04-18 18:22 -34.91566 -59.90732 1537 ft 98 kts 240°
2026-04-18 18:23 -34.91863 -59.91498 1550 ft 103 kts 239°
2026-04-18 18:23 -34.92163 -59.92305 1553 ft 105 kts 240°
2026-04-18 18:23 -34.92459 -59.93105 1553 ft 102 kts 240°
2026-04-18 18:23 -34.92761 -59.93909 1542 ft 105 kts 242°
2026-04-18 18:24 -34.93054 -59.94713 1544 ft 103 kts 239°
2026-04-18 18:24 -34.93354 -59.95497 1536 ft 102 kts 240°
2026-04-18 18:24 -34.93649 -59.96272 1540 ft 103 kts 243°
2026-04-18 18:24 -34.93942 -59.97065 1537 ft 102 kts 241°
2026-04-18 18:25 -34.94237 -59.97840 1536 ft 101 kts 240°
2026-04-18 18:25 -34.94531 -59.98619 1532 ft 102 kts 241°
2026-04-18 18:25 -34.94825 -59.99394 1533 ft 100 kts 242°
2026-04-18 18:25 -34.95122 -60.00173 1540 ft 103 kts 242°
2026-04-18 18:26 -34.95425 -60.00964 1542 ft 104 kts 242°
2026-04-18 18:26 -34.95726 -60.01782 1543 ft 108 kts 241°
2026-04-18 18:26 -34.96047 -60.02633 1542 ft 110 kts 242°
2026-04-18 18:26 -34.96360 -60.03479 1536 ft 109 kts 242°
2026-04-18 18:27 -34.96665 -60.04301 1530 ft 104 kts 241°
2026-04-18 18:27 -34.96965 -60.05081 1519 ft 100 kts 241°
2026-04-18 18:27 -34.97279 -60.05822 1522 ft 97 kts 224°
2026-04-18 18:27 -34.97858 -60.06075 1523 ft 87 kts 173°
2026-04-18 18:28 -34.98411 -60.05889 1477 ft 83 kts 144°
2026-04-18 18:28 -34.98786 -60.05360 1358 ft 86 kts 115°
2026-04-18 18:28 -34.98851 -60.04653 1230 ft 84 kts 82°
2026-04-18 18:28 -34.98583 -60.04028 1090 ft 86 kts 52°
2026-04-18 18:29 -34.98055 -60.03697 1018 ft 85 kts 16°
2026-04-18 18:29 -34.97510 -60.03601 1015 ft 73 kts 18°
2026-04-18 18:29 -34.97013 -60.03485 1020 ft 74 kts 17°
2026-04-18 18:29 -34.96494 -60.03378 1019 ft 78 kts 16°
2026-04-18 18:30 -34.95951 -60.03262 1018 ft 79 kts 16°
2026-04-18 18:30 -34.95386 -60.03202 1017 ft 89 kts 353°
2026-04-18 18:30 -34.94981 -60.03762 1019 ft 95 kts 273°
2026-04-18 18:30 -34.94959 -60.04557 1040 ft 97 kts 272°
2026-04-18 18:31 -34.94935 -60.05379 1034 ft 94 kts 268°
2026-04-18 18:31 -34.95194 -60.06052 835 ft 91 kts 193°
2026-04-18 18:31 -34.95787 -60.05998 645 ft 81 kts 158°
2026-04-18 18:31 -34.96200 -60.05600 501 ft 77 kts 98°
2026-04-18 18:32 -34.96174 -60.04915 344 ft 81 kts 89°
2026-04-18 18:32 -34.96252 -60.04291 214 ft 69 kts 98°
2026-04-18 18:32 -34.96339 -60.03751 156 ft 58 kts 98°
2026-04-18 18:32 -34.96388 -60.03409 152 ft 22 kts 102°
2026-04-18 18:33 -34.96402 -60.03302 152 ft 0 kts 64°
2026-04-18 18:33 -34.96391 -60.03293 152 ft 1 kts 21°
2026-04-18 18:33 -34.96390 -60.03293 152 ft 4 kts 18°
2026-04-18 18:33 -34.96338 -60.03264 152 ft 11 kts 32°
2026-04-18 18:34 -34.96244 -60.03176 154 ft 22 kts 35°
2026-04-18 18:34 -34.96170 -60.03158 154 ft 6 kts 313°
2026-04-18 18:34 -34.96124 -60.03224 156 ft 13 kts 313°
2026-04-18 18:34 -34.96034 -60.03334 156 ft 22 kts 307°
2026-04-18 18:35 -34.96041 -60.03482 156 ft 12 kts 250°
2026-04-18 18:35 -34.96038 -60.03528 157 ft 9 kts 305°
2026-04-18 18:35 -34.96028 -60.03542 158 ft 0 kts 312°